Miscellaneous Local Product
Issued by NWS Hastings, NE

Home | Current Version | Previous Version | Text Only | Print | Product List | Glossary Off
Versions: 1 2 3 4 5 6 7 8 9 10 11 12 13 14 15 16 17 18 19 20 21 22 23 24 25 26 27 28 29 30 31 32 33 34 35 36 37 38 39 40 41 42 43 44 45 46 47 48 49 50

000
AXUS43 KGID 311202
MISGRI

GID CWA HOURLY WEATHER ROUNDUP
NATIONAL WEATHER SERVICE HASTINGS NE
600 AM CST SAT JAN 31 2015

NOTE: "FAIR" INDICATES FEW OR NO CLOUDS BELOW 12,000 FEET WITH NO
SIGNIFICANT WEATHER AND/OR OBSTRUCTIONS TO VISIBILITY.

...SOUTH CENTRAL NEBRASKA...

CITY           SKY/WX    TMP DP  RH WIND       PRES   REMARKS
GRAND ISLAND   LGT SNOW  33  31  92 S9        30.10F FOG     WCI  25
HASTINGS       LGT SNOW  32  31  96 S8        30.08F FOG     WCI  25
KEARNEY        CLOUDY    32  30  93 S10       30.06F WCI  24
ORD            CLOUDY    35  31  85 S7        30.04F WCI  29
YORK           MIX PCPN  34  32  93 S12       30.13F WCI  25
AURORA         LGT RAIN  33  33  99 S9        30.11F WCI  26
LEXINGTON      FLURRIES  33  32  95 S7        30.04F WCI  27
HOLDREGE       LGT SNOW  32  32  98 S10       30.05F WCI  24
HEBRON         LGT SNOW  33  32  95 S9        30.15F WCI  25

...NEBRASKA PANHANDLE...

CITY           SKY/WX    TMP DP  RH WIND       PRES   REMARKS
CHADRON        CLOUDY    27  25  92 CALM      30.00S
ALLIANCE       CLOUDY    29  26  89 CALM      29.95S
SCOTTSBLUFF    CLOUDY    32  28  85 NW5       29.95F WCI  27
SIDNEY         CLOUDY    32  27  81 NE8       29.93F WCI  25

...WESTERN AND NORTH CENTRAL NEBRASKA...

CITY           SKY/WX    TMP DP  RH WIND       PRES   REMARKS
VALENTINE      CLOUDY    30  24  78 NE10      30.00F WCI  21
AINSWORTH      CLOUDY    29  28  95 SE5       30.01F WCI  24
ONEILL         CLOUDY    32  32  99 CALM      30.04F
BROKEN BOW     CLOUDY    35  32  88 S8        30.02F WCI  29
IMPERIAL       LGT SNOW  33  31  92 E6        29.95F FOG     WCI  28
NORTH PLATTE   CLOUDY    33  31  92 SE5       29.99F WCI  29
MCCOOK         CLOUDY    34  32  92 SE7       29.99F WCI  28

...EASTERN NEBRASKA...

CITY           SKY/WX    TMP DP  RH WIND       PRES   REMARKS
NORFOLK        CLOUDY    36  32  85 S7        30.08F WCI  30
SO SIOUX CITY  CLOUDY    30  27  88 E7        30.12F WCI  23
TEKAMAH        CLOUDY    36  32  85 S8        30.15F WCI  30
COLUMBUS       CLOUDY    36  28  75 S12       30.13F WCI  27
ALBION         CLOUDY    36  32  85 S6        30.09F WCI  31
OMAHA EPPLEY   CLOUDY    35  29  78 SE8       30.18F WCI  29
OFFUTT AFB     CLOUDY    33  29  83 SE6       30.18S WCI  28
MILLARD        CLOUDY    39  34  81 S3        30.18S
LINCOLN        LGT RAIN  37  34  89 S12       30.17F WCI  29
NEBRASKA CITY  DRIZZLE   36  35  96 SW10      30.20S WCI  28
BEATRICE       LGT RAIN  34  33  96 S10       30.18F WCI  26
FALLS CITY     LGT RAIN  36  34  92 SW7       30.23S WCI  30

...NORTHERN KANSAS...

CITY           SKY/WX    TMP DP  RH WIND       PRES   REMARKS
GOODLAND       CLOUDY    34  33  96 S8        29.91F FOG     WCI  27
HILL CITY      CLOUDY    33  31  92 S8        30.03F WCI  26
NORTON         LGT SNOW  34  30  86 SE7       30.01F WCI  28
PHILLIPSBURG   LGT SNOW  36  36 100 SE6       30.08F WCI  31
SMITH CENTER   MIX PCPN  30  30 100 SE12      30.10F WCI  21
BELOIT         CLOUDY    34  34 100 SE7       30.14F WCI  28
HAYS           CLOUDY    32  25  74 SE10      30.08F WCI  24
RUSSELL        LGT SNOW  33  32  96 SE10      30.09F FOG     WCI  25
CONCORDIA      LGT SNOW  33  33 100 S6        30.15F FOG     WCI  28
SALINA         CLOUDY    37  33  85 SE6       30.17F WCI  32
TOPEKA         LGT RAIN  35  34  96 E3        30.25F FOG



USA.gov is the U.S. government's official web portal to all federal, state and local government web resources and services.